Time,TemperatureF,DewpointF,PressureIn,WindDirection,WindDirectionDegrees,WindSpeedMPH,WindSpeedGustMPH,Humidity,HourlyPrecipIn,Conditions,Clouds,dailyrainin,SoftwareType,DateUTC
2013-10-12 00:00:00,45.2,34.1,24.11,North,0,0.0,-999.0,65,0.00,,,0.00,,2013-10-12 07:00:00,
2013-10-12 01:00:00,41.4,30.2,24.10,North,0,0.0,-999.0,64,0.00,,,0.00,,2013-10-12 08:00:00,
2013-10-12 02:00:00,40.7,30.2,24.11,North,0,0.0,-999.0,66,0.00,,,0.00,,2013-10-12 09:00:00,
2013-10-12 03:00:00,40.7,31.0,24.09,North,0,0.0,-999.0,68,0.00,,,0.00,,2013-10-12 10:00:00,
2013-10-12 04:00:00,39.6,29.4,24.08,North,0,0.0,-999.0,67,0.00,,,0.00,,2013-10-12 11:00:00,
2013-10-12 05:00:00,39.1,29.4,24.09,North,0,0.0,-999.0,68,0.00,,,0.00,,2013-10-12 12:00:00,
2013-10-12 06:00:00,38.7,29.0,24.09,North,0,0.0,-999.0,68,0.00,,,0.00,,2013-10-12 13:00:00,
2013-10-12 07:06:00,38.5,28.8,24.09,North,0,0.0,-999.0,68,0.00,,,0.00,,2013-10-12 14:06:00,
2013-10-12 08:05:00,40.5,30.3,0.00,North,0,0.0,-999.0,67,0.00,,,0.00,,2013-10-12 15:05:00,
2013-10-12 09:05:00,45.4,32.7,0.00,North,0,0.0,-999.0,61,0.00,,,0.00,,2013-10-12 16:05:00,
2013-10-12 10:05:00,49.9,32.0,0.00,North,0,0.0,-999.0,50,0.00,,,0.00,,2013-10-12 17:05:00,
2013-10-12 11:05:00,53.6,32.1,0.00,North,0,0.0,-999.0,44,0.00,,,0.00,,2013-10-12 18:05:00,
2013-10-12 12:05:00,55.1,34.6,0.00,North,0,0.0,-999.0,46,0.00,,,0.00,,2013-10-12 19:05:00,
2013-10-12 13:05:00,60.1,33.6,0.00,North,0,0.0,-999.0,37,0.00,,,0.00,,2013-10-12 20:05:00,
2013-10-12 14:05:00,58.9,33.8,0.00,North,0,0.0,-999.0,39,0.00,,,0.00,,2013-10-12 21:05:00,
2013-10-12 15:05:00,57.8,32.2,0.00,North,0,0.0,-999.0,38,0.00,,,0.00,,2013-10-12 22:05:00,
2013-10-12 16:05:00,56.7,28.5,0.00,North,0,0.0,-999.0,34,0.00,,,0.00,,2013-10-12 23:05:00,
2013-10-12 17:05:00,54.5,32.4,0.00,North,0,0.0,-999.0,43,0.00,,,0.00,,2013-10-13 00:05:00,
2013-10-12 18:00:00,51.3,29.4,24.06,North,0,0.0,-999.0,43,0.00,,,0.00,,2013-10-13 01:00:00,
2013-10-12 19:00:00,49.1,28.6,24.06,North,0,0.0,-999.0,45,0.00,,,0.00,,2013-10-13 02:00:00,
2013-10-12 20:00:00,47.5,30.3,24.07,North,0,0.0,-999.0,51,0.00,,,0.00,,2013-10-13 03:00:00,
2013-10-12 21:00:00,45.7,30.0,24.08,North,0,0.0,-999.0,54,0.00,,,0.00,,2013-10-13 04:00:00,
2013-10-12 22:00:00,44.3,28.2,24.08,North,0,0.0,-999.0,53,0.00,,,0.00,,2013-10-13 05:00:00,
2013-10-12 23:00:00,45.4,33.8,24.07,North,0,0.0,-999.0,64,0.00,,,0.00,,2013-10-13 06:00:00,